Location: Chin
(49.7667°N, 112.4500°W)
Time: 11:49:39
(UTC+00:00)

Envisat - Pass Details

Date: 03 December 2021
Orbit: 764 x 766 km, 98.2° (Epoch: 25 January)

Event Time Altitude Azimuth Distance (km) Brightness Sun altitude
Rises 00:45:11 0° 205° (SSW) 3,221 7.0 -11.4°
Reaches altitude 10° 00:48:01 10° 221° (SW) 2,301 6.5 -11.8°
Maximum altitude 00:51:48 21° 270° (W) 1,680 5.8 -12.4°
Drops below altitude 10° 00:55:37 10° 318° (NW) 2,315 5.8 -13.0°
Sets 00:58:30 0° 335° (NNW) 3,246 6.3 -13.4°
